Regional Weather Roundup
Issued by NWS

Home | Current Version | Previous Version | Text Only | Print | Product List | Glossary Off
Versions: 1 2 3 4 5 6 7 8 9 10 11 12 13 14 15 16 17 18 19 20 21 22 23 24 25 26 27 28 29 30 31 32 33 34 35 36 37 38 39 40 41 42 43 44 45 46 47 48 49 50

000
ASUS43 KMKX 190111
RWRWI

WISCONSIN REGIONAL WEATHER ROUNDUP
NATIONAL WEATHER SERVICE MILWAUKEE/SULLIVAN WI
800 PM CDT WED OCT 18 2017

NOTE: "FAIR" INDICATES FEW OR NO CLOUDS BELOW 12,000 FEET WITH NO
SIGNIFICANT WEATHER AND/OR OBSTRUCTIONS TO VISIBILITY.

WIZ001-002-006>008-014>016-023>028-190200-
NORTHWEST WISCONSIN

CITY           SKY/WX    TMP DP  RH WIND       PRES   REMARKS
SUPERIOR ARPT  CLOUDY    56  20  24 W10       29.82R
ASHLAND        CLEAR     56  23  27 SW8       29.79R
HAYWARD        CLOUDY    59  18  20 W8G22     29.85R
SIREN          PTCLDY    56  18  22 W10       29.90R
CUMBERLAND     CLOUDY    55  21  26 W15G21    29.89R
RICE LAKE      CLOUDY    58  22  24 W9        29.90R
CHETEK         CLOUDY    58  26  28 W7        29.88R
LADYSMITH      CLEAR     60  40  48 W9G16     29.87R
EAU CLAIRE     CLEAR     60  40  47 W10       29.89R
MENOMONIE      CLEAR     59  31  34 W8        29.90R
NEW RICHMOND   CLOUDY    55  22  27 W10       29.94R
OSCEOLA        CLOUDY    58  21  24 W13G20    29.96R
$$

WIZ003>005-009-010-017-018-190200-
NORTH CENTRAL WISCONSIN

CITY           SKY/WX    TMP DP  RH WIND       PRES   REMARKS
MANITOWISH WTR CLEAR     58  42  54 SW9G20    29.79S
ARBOR VITAE    CLEAR     60  44  55 W8        29.80S
WOODRUFF       CLEAR     60  44  55 W8        29.80S
RHINELANDER    CLEAR     61  48  62 W15G23    29.82R
EAGLE RIVER    CLEAR     58  44  58 W13       29.79S
LAND O LAKES   CLEAR     61  45  56 W6        29.80R
PHILLIPS       CLOUDY    58  43  56 SW10      29.82S
TOMAHAWK       CLEAR     60  45  57 SW6       29.84R
MEDFORD        CLEAR     59  46  61 SW8       29.86R
MERRILL        CLEAR     62  48  60 W12G18    29.85R
$$

WIZ029-030-035-036-043>047-190200-
CENTRAL WISCONSIN

CITY           SKY/WX    TMP DP  RH WIND       PRES   REMARKS
WAUSAU         CLEAR     63  48  58 SW13      29.84R
MOSINEE        PTCLDY    59  48  67 S8        29.87R
MARSHFIELD     CLEAR     61  47  59 W12       29.87R
STEVENS POINT  CLEAR     60  46  60 SW8       29.87S
WAUPACA        CLEAR     64  47  54 S8        29.88F
WAUTOMA        CLEAR     63  47  55 S7        29.91S
WISC RAPIDS    CLEAR     63  48  58 SW8       29.89R
CAMP DOUGLAS   PTCLDY    66  48  52 SW9       29.90R
$$

WIZ011>013-019>022-031-037>040-048>050-190200-
NORTHEAST WISCONSIN

CITY           SKY/WX    TMP DP  RH WIND       PRES   REMARKS
ANTIGO         CLEAR     60  47  62 SW14      29.84R
SHAWANO        CLEAR     66  46  48 SW5       29.84S
OCONTO         CLEAR     65  46  49 SW12G17   29.83S
STURGEON BAY   PTCLDY    59  48  67 S14       29.85F
GREEN BAY      CLEAR     64  47  53 SW14G25   29.87S
MANITOWOC      PTCLDY    63  44  50 SW9       29.91S
APPLETON       PTCLDY    63  41  45 SW17G23   29.88R
CLINTONVILLE   CLEAR     64  45  48 SW14      29.86S
OSHKOSH        CLEAR     62  45  53 SW14      29.91R
$$

WIZ032>034-041-042-053>061-190200-
SOUTHWEST WISCONSIN

CITY           SKY/WX    TMP DP  RH WIND       PRES   REMARKS
LA CROSSE      CLEAR     66  49  54 W9        29.92R
SPARTA         CLOUDY    57  48  73 CALM      29.92R
VIROQUA        CLEAR     61  48  62 SW8       29.95R
BOSCOBEL       CLOUDY    65  47  52 SW8       29.96R
PRAIRIE DU CHI CLOUDY    65  46  50 S3        29.96S
PLATTEVILLE    CLEAR     58  48  69 SW9       30.00R
$$

WIZ056-057-062-063-064-067-068-190200-
SOUTH CENTRAL WISCONSIN

CITY           SKY/WX    TMP DP  RH WIND       PRES   REMARKS
REEDSBURG      CLEAR     62  47  58 S10       29.94S
BARABOO/DELLS  CLEAR     62  45  52 SW12      29.94S
LONE ROCK      CLEAR     64  48  56 SW7       29.96R
MINERAL POINT  CLEAR     61  46  59 SW10      30.00R
MADISON        CLEAR     65  44  46 SW9       29.97R
MIDDLETON      CLEAR     63  44  49 SW7       29.98R
WATERTOWN      CLEAR     58  44  60 S6        29.97R
MONROE         CLEAR     59  43  55 SW12      30.00R
JANESVILLE     CLEAR     64  41  42 S8        29.99R
$$

WIZ051-052-058>065-066-070>072-190200-
SOUTHEAST WISCONSIN

CITY           SKY/WX    TMP DP  RH WIND       PRES   REMARKS
MILWAUKEE      MOCLDY    65  42  43 SW16      29.98R
WAUKESHA       CLEAR     63  39  42 SW12      29.98R
MILWAUKEE/TIMM CLEAR     63  39  42 SW10      29.98R
RACINE         MOCLDY    63  42  46 SW12      30.00R
BURLINGTON     PTCLDY    58  45  60 SW9       29.99S
KENOSHA        CLOUDY    63  41  44 SW12      29.99S
FOND DU LAC    CLEAR     63  43  48 S12G20    29.93R
SHEBOYGAN      PTCLDY    61  46  57 S12       29.93R
WEST BEND      PTCLDY    63  41  45 SW12      29.95S
JUNEAU         CLEAR     59  44  57 S8        29.97R
$$

LSZ147-162-190200-
LAKE SUPERIOR

STATION/POSITION TIME  TEMP    WIND        PRES    WAVE
                       AIR SEA DIR/SP/G            HT/PER
                 (UTC) (F)     (DEG/KT/KT) (MB)    (FT/S)
W MID LAKE BUOY  0050   58 53              1005.2R   6/ 6
DEVILS ISLAND    0000   59     260/ 20/ 24 1006.7R
PORT WING        0000          240/ 11/ 24 1008.5
SAXON HARBOR     0030   62     230/  4/  9 1007.8R
$$

LMZ867-665-643>646-190200-
LAKE MICHIGAN

STATION/POSITION TIME  TEMP    WIND        PRES    WAVE
                       AIR SEA DIR/SP/G            HT/PER
                 (UTC) (F)     (DEG/KT/KT) (MB)    (FT/S)
S GREEN BAY BUOY 0100   63 58  200/ 19/ 23 1010.3
N MID LAKE BUOY  0050   62 59  190/ 27/ 33 1009.5F  14/ 9
NORTHPORT PIER   0040   59     160/  8/ 13 1009.5F
KEWAUNEE LAKESHO 0042   58     180/ 11/ 12 1011.3S
SHEBOYGAN LAKESH 0100   65     200/ 17/ 19 1013.2R
PORT WASHINGTON  0030   67     210/  9/ 15 1014.9R
ATWATER BUOY     2309   65 52  190/ 16/ 17 1014.2F
MILWAUKEE LAKESH 0030   66     210/ 15/ 16   N/A
S MID LAKE BUOY  0050   63 61  200/ 19/ 23 1015.5F   4/ 5
KENOSHA   LAKESH 0100   65     200/ 10/ 14 1015.2
$$

TC  - TEMPERATURE IN CELSIUS
VSB - VISIBILITY IN STATUTE MILES
WCI - WIND CHILL INDEX
HX  - HEAT INDEX





USA.gov is the U.S. government's official web portal to all federal, state and local government web resources and services.